| time (UTC) | temp F | wind direction | speed MPH | gust MPH | rain 1hr in | rain 24hr in | rain mn in | humidity % | barometer mb |
| 20260905005329 | 71 | 56 | 5.0 | 13.0 | 0.00 | 0.00 | 0.00 | 85 | 944.6 |
| 20260905004828 | 72 | 49 | 6.0 | 13.0 | 0.00 | 0.00 | 0.00 | 85 | 945.2 |
| 20260905004327 | 72 | 59 | 6.0 | 13.0 | 0.00 | 0.00 | 0.00 | 86 | 945.1 |
| 20260905003310 | 74 | 46 | 7.0 | 12.0 | 0.00 | 0.00 | 0.00 | 84 | 945.0 |
| 20260905002809 | 74 | 39 | 5.0 | 12.0 | 0.00 | 0.00 | 0.00 | 83 | 945.0 |
| 20260905001752 | 74 | 29 | 4.0 | 14.0 | 0.00 | 0.00 | 0.00 | 81 | 945.0 |
| 20260905001250 | 74 | 29 | 4.0 | 14.0 | 0.00 | 0.00 | 0.00 | 82 | 945.4 |
| 20260905000749 | 73 | 41 | 4.0 | 14.0 | 0.00 | 0.00 | 0.00 | 83 | 945.4 |
| 20260905000248 | 73 | 44 | 6.0 | 14.0 | 0.00 | 0.00 | 0.00 | 81 | 945.3 |
| 20260904235747 | 73 | 42 | 6.0 | 14.0 | 0.00 | 0.00 | 0.00 | 82 | 945.2 |
| 20260904235245 | 72 | 38 | 8.0 | 14.0 | 0.00 | 0.00 | 0.00 | 81 | 945.2 |
| 20260904234744 | 72 | 44 | 8.0 | 12.0 | 0.00 | 0.00 | 0.00 | 83 | 945.5 |
| 20260904234243 | 71 | 46 | 6.0 | 15.0 | 0.00 | 0.00 | 0.00 | 84 | 945.3 |
| 20260904233226 | 70 | 40 | 6.0 | 14.0 | 0.00 | 0.00 | 0.00 | 89 | 945.5 |
| 20260904232725 | 71 | 46 | 8.0 | 14.0 | 0.00 | 0.00 | 0.00 | 86 | 945.6 |
| 20260904232224 | 73 | 51 | 5.0 | 13.0 | 0.00 | 0.00 | 0.00 | 87 | 945.5 |
| 20260904230651 | 74 | 43 | 5.0 | 11.0 | 0.00 | 0.00 | 0.00 | 87 | 945.6 |
| 20260904230150 | 74 | 42 | 4.0 | 11.0 | 0.00 | 0.00 | 0.00 | 88 | 945.6 |
| 20260904225649 | 74 | 46 | 5.0 | 11.0 | 0.00 | 0.00 | 0.00 | 86 | 946.0 |
| 20260904225147 | 74 | 42 | 4.0 | 11.0 | 0.00 | 0.00 | 0.00 | 88 | 945.9 |
| 20260904224646 | 75 | 87 | 4.0 | 11.0 | 0.00 | 0.00 | 0.00 | 87 | 945.8 |
| 20260904224145 | 75 | 60 | 4.0 | 11.0 | 0.00 | 0.00 | 0.00 | 87 | 946.1 |
| 20260904223644 | 75 | 60 | 5.0 | 11.0 | 0.00 | 0.00 | 0.00 | 85 | 946.4 |
| 20260904223143 | 75 | 51 | 5.0 | 12.0 | 0.00 | 0.00 | 0.00 | 87 | 946.0 |
| 20260904222642 | 74 | 61 | 3.0 | 12.0 | 0.00 | 0.00 | 0.00 | 88 | 946.4 |
| 20260904222141 | 74 | 42 | 3.0 | 14.0 | 0.00 | 0.00 | 0.00 | 88 | 946.0 |
| 20260904221640 | 74 | 40 | 3.0 | 14.0 | 0.00 | 0.00 | 0.00 | 89 | 946.2 |
| 20260904221139 | 74 | 54 | 5.0 | 12.0 | 0.00 | 0.00 | 0.00 | 88 | 945.9 |
| 20260904220122 | 73 | 38 | 6.0 | 16.0 | 0.00 | 0.00 | 0.00 | 87 | 946.2 |
| 20260904215621 | 73 | 43 | 6.0 | 16.0 | 0.00 | 0.00 | 0.00 | 88 | 946.4 |
| 20260904215119 | 73 | 40 | 6.0 | 16.0 | 0.00 | 0.00 | 0.00 | 88 | 946.4 |
| 20260904214618 | 73 | 44 | 5.0 | 12.0 | 0.00 | 0.00 | 0.00 | 88 | 946.1 |
| 20260904214117 | 73 | 51 | 4.0 | 12.0 | 0.00 | 0.00 | 0.00 | 89 | 945.9 |
| 20260904213616 | 73 | 42 | 6.0 | 13.0 | 0.00 | 0.00 | 0.00 | 88 | 945.8 |
| 20260904213114 | 73 | 44 | 5.0 | 13.0 | 0.00 | 0.00 | 0.00 | 89 | 946.1 |
| 20260904212057 | 73 | 39 | 8.0 | 13.0 | 0.00 | 0.00 | 0.00 | 88 | 946.2 |
| 20260904211040 | 73 | 58 | 6.0 | 14.0 | 0.00 | 0.00 | 0.00 | 89 | 946.2 |
| 20260904210022 | 74 | 37 | 6.0 | 14.0 | 0.00 | 0.00 | 0.00 | 88 | 945.8 |
| 20260904205521 | 73 | 43 | 6.0 | 14.0 | 0.00 | 0.00 | 0.00 | 89 | 946.1 |
| 20260904205020 | 73 | 50 | 5.0 | 13.0 | 0.00 | 0.00 | 0.00 | 90 | 946.1 |
| 20260904204002 | 73 | 47 | 6.0 | 15.0 | 0.00 | 0.00 | 0.00 | 90 | 946.1 |
| 20260904202945 | 72 | 60 | 7.0 | 13.0 | 0.00 | 0.00 | 0.00 | 90 | 946.1 |
| 20260904202444 | 72 | 53 | 5.0 | 12.0 | 0.00 | 0.00 | 0.00 | 92 | 946.0 |
| 20260904201427 | 72 | 49 | 6.0 | 14.0 | 0.00 | 0.00 | 0.00 | 92 | 946.5 |
| 20260904200926 | 71 | 47 | 6.0 | 14.0 | 0.00 | 0.00 | 0.00 | 93 | 946.1 |
| 20260904200425 | 71 | 49 | 7.0 | 13.0 | 0.00 | 0.00 | 0.00 | 92 | 945.7 |
| 20260904195924 | 71 | 50 | 8.0 | 15.0 | 0.00 | 0.00 | 0.00 | 92 | 946.1 |
| 20260904194907 | 71 | 47 | 7.0 | 16.0 | 0.00 | 0.00 | 0.00 | 91 | 946.0 |
| 20260904194406 | 71 | 49 | 7.0 | 14.0 | 0.00 | 0.00 | 0.00 | 91 | 945.8 |
| 20260904193905 | 70 | 53 | 7.0 | 15.0 | 0.00 | 0.00 | 0.00 | 93 | 946.1 |
| 20260904193404 | 70 | 49 | 9.0 | 15.0 | 0.00 | 0.00 | 0.00 | 94 | 946.0 |
| 20260904192903 | 70 | 48 | 10.0 | 19.0 | 0.00 | 0.00 | 0.00 | 93 | 945.8 |
| 20260904191846 | 70 | 40 | 7.0 | 14.0 | 0.00 | 0.00 | 0.00 | 94 | 946.0 |
| 20260904191345 | 69 | 43 | 8.0 | 18.0 | 0.00 | 0.00 | 0.00 | 94 | 946.0 |
| 20260904190844 | 69 | 52 | 8.0 | 18.0 | 0.00 | 0.00 | 0.00 | 93 | 945.8 |
| 20260904190342 | 69 | 47 | 7.0 | 19.0 | 0.00 | 0.00 | 0.00 | 94 | 946.4 |
| 20260904185841 | 69 | 46 | 7.0 | 19.0 | 0.00 | 0.00 | 0.00 | 94 | 945.8 |
| 20260904185340 | 69 | 50 | 6.0 | 16.0 | 0.00 | 0.00 | 0.00 | 94 | 945.9 |
| 20260904184323 | 69 | 51 | 6.0 | 14.0 | 0.00 | 0.00 | 0.00 | 95 | 946.1 |
| 20260904183305 | 68 | 52 | 5.0 | 14.0 | 0.00 | 0.00 | 0.00 | 96 | 945.8 |
| 20260904181216 | 68 | 48 | 6.0 | 16.0 | 0.00 | 0.00 | 0.00 | 95 | 945.9 |
| 20260904180714 | 68 | 39 | 6.0 | 14.0 | 0.00 | 0.00 | 0.00 | 95 | 945.8 |
| 20260904180213 | 68 | 43 | 8.0 | 14.0 | 0.00 | 0.00 | 0.00 | 94 | 946.1 |
| 20260904175712 | 68 | 41 | 7.0 | 14.0 | 0.00 | 0.00 | 0.00 | 93 | 945.7 |
| 20260904175211 | 68 | 42 | 7.0 | 14.0 | 0.00 | 0.00 | 0.00 | 95 | 945.9 |
| 20260904174709 | 68 | 46 | 7.0 | 14.0 | 0.00 | 0.00 | 0.00 | 95 | 945.5 |
| 20260904174208 | 67 | 42 | 6.0 | 14.0 | 0.00 | 0.00 | 0.00 | 95 | 945.9 |
| 20260904173707 | 67 | 41 | 6.0 | 14.0 | 0.00 | 0.00 | 0.00 | 95 | 945.9 |
| 20260904173205 | 67 | 30 | 5.0 | 14.0 | 0.00 | 0.00 | 0.00 | 95 | 945.4 |
| 20260904172704 | 67 | 38 | 8.0 | 14.0 | 0.00 | 0.00 | 0.00 | 94 | 945.5 |
| 20260904172203 | 67 | 37 | 7.0 | 15.0 | 0.00 | 0.00 | 0.00 | 94 | 945.3 |
| 20260904171702 | 66 | 42 | 7.0 | 15.0 | 0.00 | 0.00 | 0.00 | 93 | 945.4 |
| 20260904171201 | 67 | 38 | 8.0 | 15.0 | 0.00 | 0.00 | 0.00 | 93 | 945.3 |
| 20260904170700 | 67 | 37 | 7.0 | 14.0 | 0.00 | 0.00 | 0.00 | 93 | 945.3 |
| 20260904170159 | 66 | 47 | 6.0 | 15.0 | 0.00 | 0.00 | 0.00 | 94 | 945.4 |
| 20260904165658 | 66 | 48 | 5.0 | 15.0 | 0.00 | 0.00 | 0.00 | 94 | 945.4 |
| 20260904164640 | 66 | 50 | 6.0 | 14.0 | 0.00 | 0.00 | 0.00 | 95 | 945.2 |
| 20260904164139 | 66 | 44 | 7.0 | 14.0 | 0.00 | 0.00 | 0.00 | 95 | 945.2 |
| 20260904163122 | 66 | 38 | 7.0 | 14.0 | 0.00 | 0.00 | 0.00 | 95 | 945.0 |
| 20260904162621 | 66 | 37 | 5.0 | 14.0 | 0.00 | 0.00 | 0.00 | 95 | 945.4 |
| 20260904161604 | 66 | 43 | 5.0 | 11.0 | 0.00 | 0.00 | 0.00 | 94 | 945.2 |
| 20260904161104 | 66 | 43 | 5.0 | 13.0 | 0.00 | 0.00 | 0.00 | 94 | 945.2 |
| 20260904160046 | 66 | 38 | 8.0 | 13.0 | 0.00 | 0.00 | 0.00 | 94 | 945.2 |
| 20260904155545 | 66 | 41 | 6.0 | 13.0 | 0.00 | 0.00 | 0.00 | 94 | 944.8 |
| 20260904155044 | 66 | 41 | 6.0 | 13.0 | 0.00 | 0.00 | 0.00 | 93 | 944.9 |
| 20260904154542 | 66 | 49 | 6.0 | 13.0 | 0.00 | 0.00 | 0.00 | 93 | 944.9 |
| 20260904154041 | 66 | 41 | 6.0 | 13.0 | 0.00 | 0.00 | 0.00 | 93 | 944.8 |
| 20260904153540 | 66 | 42 | 7.0 | 15.0 | 0.00 | 0.00 | 0.00 | 93 | 944.7 |
| 20260904153039 | 66 | 39 | 6.0 | 15.0 | 0.00 | 0.00 | 0.00 | 93 | 945.1 |
| 20260904152539 | 66 | 46 | 5.0 | 15.0 | 0.00 | 0.00 | 0.00 | 93 | 945.0 |
| 20260904152037 | 66 | 39 | 5.0 | 14.0 | 0.00 | 0.00 | 0.00 | 93 | 944.8 |
| 20260904151536 | 66 | 42 | 8.0 | 14.0 | 0.00 | 0.00 | 0.00 | 93 | 945.1 |
| 20260904151036 | 66 | 45 | 7.0 | 14.0 | 0.00 | 0.00 | 0.00 | 93 | 944.9 |
| 20260904150534 | 65 | 46 | 5.0 | 15.0 | 0.00 | 0.00 | 0.00 | 93 | 945.0 |
| 20260904150033 | 66 | 44 | 6.0 | 15.0 | 0.00 | 0.00 | 0.00 | 93 | 945.1 |
| 20260904145533 | 65 | 44 | 7.0 | 13.0 | 0.00 | 0.00 | 0.00 | 93 | 945.2 |
| 20260904145031 | 65 | 41 | 7.0 | 13.0 | 0.00 | 0.00 | 0.00 | 93 | 944.9 |
| 20260904144530 | 65 | 41 | 6.0 | 13.0 | 0.00 | 0.00 | 0.00 | 92 | 945.1 |
| 20260904143513 | 65 | 34 | 7.0 | 14.0 | 0.00 | 0.00 | 0.00 | 93 | 944.8 |
| 20260904142454 | 65 | 38 | 5.0 | 14.0 | 0.00 | 0.00 | 0.00 | 92 | 944.8 |
| 20260904141953 | 66 | 37 | 7.0 | 14.0 | 0.00 | 0.00 | 0.00 | 92 | 945.0 |
| 20260904141453 | 66 | 40 | 7.0 | 14.0 | 0.00 | 0.00 | 0.00 | 92 | 944.8 |
| 20260904140951 | 65 | 30 | 6.0 | 14.0 | 0.00 | 0.00 | 0.00 | 91 | 945.0 |
| 20260904135934 | 66 | 39 | 7.0 | 14.0 | 0.00 | 0.00 | 0.00 | 90 | 944.8 |
| 20260904134917 | 66 | 41 | 5.0 | 14.0 | 0.00 | 0.00 | 0.00 | 91 | 944.9 |
| 20260904134416 | 66 | 41 | 6.0 | 14.0 | 0.00 | 0.00 | 0.00 | 91 | 945.1 |
| 20260904133916 | 66 | 42 | 8.0 | 14.0 | 0.00 | 0.00 | 0.00 | 91 | 944.5 |
| 20260904133414 | 66 | 43 | 6.0 | 13.0 | 0.00 | 0.00 | 0.00 | 91 | 944.9 |
| 20260904132913 | 66 | 40 | 6.0 | 13.0 | 0.00 | 0.00 | 0.00 | 91 | 945.2 |
| 20260904132412 | 66 | 41 | 6.0 | 13.0 | 0.00 | 0.00 | 0.00 | 91 | 944.9 |
| 20260904131911 | 66 | 42 | 7.0 | 13.0 | 0.00 | 0.00 | 0.00 | 91 | 944.9 |
| 20260904131409 | 66 | 40 | 6.0 | 13.0 | 0.00 | 0.00 | 0.00 | 92 | 945.1 |
| 20260904130909 | 66 | 41 | 6.0 | 13.0 | 0.00 | 0.00 | 0.00 | 93 | 945.1 |
| 20260904130408 | 65 | 36 | 6.0 | 13.0 | 0.00 | 0.00 | 0.00 | 93 | 945.3 |
| 20260904125906 | 66 | 49 | 6.0 | 13.0 | 0.00 | 0.00 | 0.00 | 94 | 945.4 |
| 20260904125406 | 66 | 45 | 6.0 | 13.0 | 0.00 | 0.00 | 0.00 | 94 | 945.0 |
| 20260904124905 | 66 | 50 | 5.0 | 14.0 | 0.00 | 0.00 | 0.00 | 95 | 945.0 |
| 20260904124403 | 65 | 54 | 5.0 | 14.0 | 0.00 | 0.00 | 0.00 | 95 | 945.1 |
| 20260904123346 | 66 | 47 | 8.0 | 15.0 | 0.00 | 0.00 | 0.00 | 95 | 945.1 |
| 20260904122845 | 66 | 45 | 8.0 | 15.0 | 0.00 | 0.00 | 0.00 | 94 | 945.2 |
| 20260904121312 | 66 | 40 | 8.0 | 15.0 | 0.00 | 0.00 | 0.00 | 94 | 945.0 |
| 20260904120256 | 66 | 39 | 8.0 | 18.0 | 0.00 | 0.00 | 0.00 | 94 | 945.3 |
| 20260904115755 | 66 | 41 | 7.0 | 18.0 | 0.00 | 0.00 | 0.00 | 93 | 945.7 |
| 20260904115254 | 66 | 44 | 7.0 | 18.0 | 0.00 | 0.00 | 0.00 | 93 | 945.6 |
| 20260904114753 | 66 | 49 | 5.0 | 18.0 | 0.00 | 0.00 | 0.00 | 93 | 946.0 |
| 20260904114252 | 66 | 48 | 6.0 | 18.0 | 0.00 | 0.00 | 0.00 | 93 | 945.9 |
| 20260904113750 | 66 | 47 | 7.0 | 18.0 | 0.00 | 0.00 | 0.00 | 93 | 945.7 |
| 20260904112217 | 66 | 52 | 7.0 | 14.0 | 0.00 | 0.00 | 0.00 | 94 | 945.8 |
| 20260904111716 | 66 | 50 | 7.0 | 14.0 | 0.00 | 0.00 | 0.00 | 94 | 946.0 |
| 20260904110659 | 66 | 47 | 7.0 | 16.0 | 0.00 | 0.00 | 0.00 | 94 | 946.3 |
| 20260904110158 | 65 | 47 | 7.0 | 14.0 | 0.00 | 0.00 | 0.00 | 94 | 945.9 |
| 20260904105657 | 65 | 43 | 7.0 | 14.0 | 0.00 | 0.00 | 0.00 | 94 | 946.0 |
| 20260904105156 | 65 | 46 | 7.0 | 16.0 | 0.00 | 0.00 | 0.00 | 95 | 946.0 |
| 20260904104655 | 66 | 52 | 8.0 | 16.0 | 0.00 | 0.00 | 0.00 | 95 | 946.1 |
| 20260904104154 | 65 | 48 | 8.0 | 15.0 | 0.00 | 0.00 | 0.00 | 95 | 946.1 |
| 20260904103653 | 65 | 53 | 6.0 | 18.0 | 0.00 | 0.00 | 0.00 | 95 | 946.0 |
| 20260904103152 | 65 | 55 | 6.0 | 18.0 | 0.00 | 0.00 | 0.00 | 95 | 945.9 |
| 20260904102651 | 65 | 50 | 7.0 | 18.0 | 0.00 | 0.00 | 0.00 | 95 | 945.9 |
| 20260904102150 | 66 | 57 | 8.0 | 19.0 | 0.00 | 0.00 | 0.00 | 95 | 946.1 |
| 20260904101649 | 66 | 54 | 9.0 | 19.0 | 0.00 | 0.00 | 0.00 | 96 | 946.1 |
| 20260904101148 | 66 | 57 | 5.0 | 18.0 | 0.00 | 0.00 | 0.00 | 96 | 946.6 |
| 20260904100647 | 66 | 52 | 7.0 | 15.0 | 0.00 | 0.00 | 0.00 | 96 | 946.6 |
| 20260904095630 | 66 | 46 | 8.0 | 19.0 | 0.00 | 0.00 | 0.00 | 96 | 946.7 |
| 20260904095129 | 66 | 47 | 6.0 | 19.0 | 0.00 | 0.00 | 0.00 | 96 | 946.5 |
| 20260904094628 | 66 | 54 | 6.0 | 18.0 | 0.00 | 0.00 | 0.00 | 96 | 946.4 |
| 20260904093611 | 66 | 45 | 7.0 | 19.0 | 0.00 | 0.00 | 0.00 | 96 | 946.5 |
| 20260904093110 | 66 | 61 | 6.0 | 13.0 | 0.00 | 0.00 | 0.00 | 96 | 946.6 |
| 20260904092609 | 66 | 53 | 6.0 | 13.0 | 0.00 | 0.00 | 0.00 | 96 | 946.3 |
| 20260904092108 | 66 | 47 | 6.0 | 14.0 | 0.00 | 0.00 | 0.00 | 97 | 946.4 |
| 20260904091607 | 66 | 44 | 6.0 | 14.0 | 0.00 | 0.00 | 0.00 | 97 | 946.4 |
| 20260904091106 | 66 | 55 | 6.0 | 14.0 | 0.00 | 0.00 | 0.00 | 96 | 946.6 |
| 20260904090605 | 66 | 48 | 6.0 | 14.0 | 0.00 | 0.00 | 0.00 | 96 | 946.4 |
| 20260904090104 | 66 | 65 | 5.0 | 14.0 | 0.00 | 0.00 | 0.00 | 96 | 946.6 |
| 20260904085603 | 66 | 58 | 5.0 | 14.0 | 0.00 | 0.00 | 0.00 | 96 | 946.7 |
| 20260904085102 | 66 | 55 | 5.0 | 14.0 | 0.00 | 0.00 | 0.00 | 96 | 946.9 |
| 20260904084045 | 66 | 53 | 6.0 | 14.0 | 0.00 | 0.00 | 0.00 | 96 | 946.9 |
| 20260904083544 | 66 | 50 | 7.0 | 13.0 | 0.00 | 0.00 | 0.00 | 96 | 947.0 |
| 20260904083043 | 66 | 52 | 7.0 | 13.0 | 0.00 | 0.00 | 0.00 | 96 | 946.9 |
| 20260904082542 | 65 | 49 | 5.0 | 13.0 | 0.00 | 0.00 | 0.00 | 96 | 946.8 |
| 20260904082041 | 65 | 50 | 5.0 | 13.0 | 0.00 | 0.00 | 0.00 | 96 | 946.9 |
| 20260904081540 | 65 | 57 | 6.0 | 14.0 | 0.00 | 0.00 | 0.00 | 96 | 947.0 |
| 20260904081039 | 65 | 59 | 6.0 | 14.0 | 0.00 | 0.00 | 0.00 | 96 | 946.7 |
| 20260904080538 | 65 | 69 | 6.0 | 16.0 | 0.00 | 0.00 | 0.00 | 96 | 947.0 |
| 20260904080037 | 65 | 67 | 6.0 | 16.0 | 0.00 | 0.00 | 0.00 | 96 | 946.7 |
| 20260904075536 | 65 | 64 | 5.0 | 16.0 | 0.00 | 0.00 | 0.00 | 96 | 947.3 |
| 20260904075035 | 65 | 72 | 7.0 | 14.0 | 0.00 | 0.00 | 0.00 | 96 | 947.0 |
| 20260904074534 | 66 | 57 | 5.0 | 13.0 | 0.00 | 0.00 | 0.00 | 96 | 947.0 |
| 20260904073517 | 65 | 63 | 7.0 | 14.0 | 0.00 | 0.00 | 0.00 | 95 | 947.1 |
| 20260904073016 | 65 | 66 | 8.0 | 14.0 | 0.00 | 0.00 | 0.00 | 95 | 946.9 |
| 20260904072515 | 65 | 61 | 6.0 | 14.0 | 0.00 | 0.00 | 0.00 | 94 | 946.7 |
| 20260904072014 | 65 | 60 | 6.0 | 14.0 | 0.00 | 0.00 | 0.00 | 93 | 946.9 |
| 20260904071513 | 66 | 60 | 7.0 | 14.0 | 0.00 | 0.00 | 0.00 | 93 | 946.8 |
| 20260904070456 | 65 | 59 | 6.0 | 15.0 | 0.00 | 0.00 | 0.00 | 93 | 946.7 |
| 20260904065955 | 65 | 62 | 8.0 | 16.0 | 0.00 | 0.00 | 0.00 | 93 | 946.9 |
| 20260904065454 | 65 | 64 | 7.0 | 16.0 | 0.00 | 0.00 | 0.00 | 93 | 946.5 |
| 20260904064953 | 65 | 63 | 7.0 | 15.0 | 0.00 | 0.00 | 0.00 | 93 | 946.5 |
| 20260904063935 | 65 | 61 | 7.0 | 20.0 | 0.00 | 0.00 | 0.00 | 94 | 946.9 |
| 20260904063434 | 66 | 73 | 9.0 | 20.0 | 0.00 | 0.00 | 0.00 | 94 | 946.6 |
| 20260904062933 | 66 | 65 | 9.0 | 18.0 | 0.00 | 0.00 | 0.00 | 95 | 946.4 |
| 20260904062432 | 66 | 68 | 7.0 | 18.0 | 0.00 | 0.00 | 0.00 | 96 | 946.6 |
| 20260904061931 | 66 | 61 | 8.0 | 14.0 | 0.00 | 0.00 | 0.00 | 96 | 946.4 |
| 20260904061430 | 66 | 64 | 7.0 | 20.0 | 0.00 | 0.00 | 0.00 | 96 | 946.3 |
| 20260904060929 | 66 | 75 | 8.0 | 20.0 | 0.00 | 0.00 | 0.00 | 96 | 946.2 |
| 20260904060428 | 65 | 85 | 9.0 | 19.0 | 0.00 | 0.00 | 0.00 | 96 | 946.3 |
| 20260904055927 | 65 | 83 | 9.0 | 19.0 | 0.00 | 0.00 | 0.00 | 96 | 946.3 |
| 20260904055426 | 65 | 71 | 7.0 | 18.0 | 0.00 | 0.00 | 0.00 | 96 | 946.3 |
| 20260904054925 | 65 | 65 | 6.0 | 14.0 | 0.00 | 0.00 | 0.00 | 96 | 946.0 |
| 20260904054424 | 65 | 68 | 6.0 | 14.0 | 0.00 | 0.00 | 0.00 | 96 | 946.1 |
| 20260904053407 | 65 | 58 | 6.0 | 14.0 | 0.00 | 0.00 | 0.00 | 97 | 946.1 |
| 20260904052906 | 65 | 55 | 6.0 | 14.0 | 0.00 | 0.00 | 0.00 | 96 | 946.2 |
| 20260904051849 | 65 | 60 | 5.0 | 25.0 | 0.00 | 0.00 | 0.00 | 97 | 945.9 |
| 20260904051348 | 65 | 69 | 5.0 | 16.0 | 0.00 | 0.00 | 0.00 | 96 | 946.0 |
| 20260904050847 | 65 | 67 | 7.0 | 16.0 | 0.00 | 0.00 | 0.00 | 96 | 945.8 |
| 20260904045830 | 65 | 55 | 7.0 | 15.0 | 0.00 | 0.00 | 0.00 | 96 | 945.8 |
| 20260904044812 | 66 | 59 | 7.0 | 15.0 | 0.00 | 0.00 | 0.00 | 96 | 945.9 |
| 20260904044311 | 65 | 55 | 7.0 | 16.0 | 0.00 | 0.00 | 0.00 | 96 | 945.4 |
| 20260904043254 | 66 | 43 | 8.0 | 15.0 | 0.00 | 0.00 | 0.00 | 95 | 945.5 |
| 20260904042753 | 66 | 60 | 7.0 | 13.0 | 0.00 | 0.00 | 0.00 | 95 | 945.2 |
| 20260904041736 | 67 | 51 | 5.0 | 13.0 | 0.00 | 0.00 | 0.00 | 95 | 945.1 |
| 20260904041235 | 67 | 53 | 7.0 | 14.0 | 0.00 | 0.00 | 0.00 | 94 | 945.4 |
| 20260904040733 | 67 | 52 | 7.0 | 14.0 | 0.00 | 0.00 | 0.00 | 94 | 945.0 |
| 20260904035716 | 67 | 44 | 7.0 | 13.0 | 0.00 | 0.00 | 0.00 | 91 | 945.4 |
| 20260904034143 | 68 | 48 | 7.0 | 14.0 | 0.00 | 0.00 | 0.00 | 90 | 945.4 |
| 20260904033642 | 68 | 50 | 8.0 | 14.0 | 0.00 | 0.00 | 0.00 | 88 | 945.3 |
| 20260904033141 | 68 | 55 | 6.0 | 13.0 | 0.00 | 0.00 | 0.00 | 89 | 945.3 |
| 20260904032640 | 68 | 52 | 8.0 | 14.0 | 0.00 | 0.00 | 0.00 | 89 | 945.2 |
| 20260904032139 | 68 | 55 | 6.0 | 14.0 | 0.00 | 0.00 | 0.00 | 89 | 945.2 |
| 20260904031638 | 69 | 52 | 6.0 | 14.0 | 0.00 | 0.00 | 0.00 | 89 | 945.3 |
| 20260904031136 | 69 | 45 | 5.0 | 14.0 | 0.00 | 0.00 | 0.00 | 91 | 945.2 |
| 20260904030635 | 69 | 41 | 7.0 | 15.0 | 0.00 | 0.00 | 0.00 | 91 | 945.3 |
| 20260904030134 | 69 | 47 | 7.0 | 15.0 | 0.00 | 0.00 | 0.00 | 92 | 945.3 |
| 20260904025117 | 69 | 42 | 7.0 | 15.0 | 0.00 | 0.00 | 0.00 | 92 | 945.4 |
| 20260904024616 | 69 | 50 | 7.0 | 15.0 | 0.00 | 0.00 | 0.00 | 92 | 945.5 |
| 20260904024115 | 69 | 44 | 8.0 | 15.0 | 0.00 | 0.00 | 0.00 | 91 | 945.3 |
| 20260904023613 | 70 | 55 | 7.0 | 15.0 | 0.00 | 0.00 | 0.00 | 92 | 945.3 |
| 20260904023112 | 70 | 49 | 7.0 | 14.0 | 0.00 | 0.00 | 0.00 | 92 | 945.3 |
| 20260904022611 | 70 | 54 | 6.0 | 16.0 | 0.00 | 0.00 | 0.00 | 93 | 945.1 |
| 20260904022110 | 70 | 54 | 7.0 | 16.0 | 0.00 | 0.00 | 0.00 | 92 | 945.5 |
| 20260904021053 | 71 | 45 | 6.0 | 19.0 | 0.00 | 0.00 | 0.00 | 92 | 945.4 |
| 20260904020036 | 71 | 44 | 7.0 | 15.0 | 0.00 | 0.00 | 0.00 | 92 | 945.5 |
| 20260904015535 | 71 | 51 | 6.0 | 16.0 | 0.00 | 0.00 | 0.00 | 91 | 945.3 |
| 20260904015034 | 72 | 58 | 6.0 | 16.0 | 0.00 | 0.00 | 0.00 | 91 | 945.5 |
| 20260904014534 | 72 | 61 | 5.0 | 12.0 | 0.00 | 0.00 | 0.00 | 92 | 945.5 |
| 20260904013000 | 72 | 53 | 7.0 | 15.0 | 0.00 | 0.00 | 0.00 | 90 | 945.9 |
| 20260904012459 | 72 | 54 | 7.0 | 18.0 | 0.00 | 0.00 | 0.00 | 89 | 945.5 |
| 20260904011958 | 72 | 51 | 7.0 | 18.0 | 0.00 | 0.00 | 0.00 | 89 | 945.9 |
| 20260904011457 | 73 | 51 | 5.0 | 16.0 | 0.00 | 0.00 | 0.00 | 88 | 945.6 |